Regional Weather Roundup
Issued by NWS Austin/San Antonio, TX

Home | Current Version | Previous Version | Text Only | Print | Product List | Glossary On
Versions: 1 2 3 4 5 6 7 8 9 10 11 12 13 14 15 16 17 18 19 20 21 22 23 24 25 26 27 28 29 30 31 32 33 34 35 36 37 38 39 40 41 42 43 44 45 46 47 48 49 50
593
ASUS44 KEWX 211502
RWREWX
SOUTH TEXAS REGIONAL WEATHER ROUNDUP
NATIONAL WEATHER SERVICE AUSTIN/SAN ANTONIO TX
1000 AM CDT SUN APR 21 2019

NOTE: "FAIR" INDICATED FEW OR NO CLOUDS BELOW 12,000 FEET WITH NO
SIGNIFICANT WEATHER AND/OR OBSTRUCTIONS TO VISIBILITY.

* - THESE STATIONS ARE NOT NWS OR FAA STATIONS...AND ARE NOT SUBJECT
    TO NWS AND FAA QUALITY CONTROL.

TXZ171-172-183>190-211600-
TEXAS HILL COUNTRY AND EDWARDS PLATEAU

CITY           SKY/WX    TMP DP  RH WIND       PRES   REMARKS
JUNCTION       MOSUNNY   66  58  75 S9        29.98R
*LLANO         SUNNY     70  59  68 S13G20    29.99R
BURNET         SUNNY     69  58  67 S17G28    29.98S
*HORSESHOE BAY MOSUNNY   69  59  70 S13G29    29.97S
*KERRVILLE     CLOUDY    63  58  86 S10       29.99R
*FREDERICKSBRG CLOUDY    64  58  80 S13G20    29.98S
*ROCKSPRINGS   FOG       59  59 100 S12       30.04R VSB 1/2
*BOERNE STAGE  CLOUDY    63  61  94 S14G24    30.01S
*CASTROVILLE   CLOUDY    66  62  87 S13G18    30.00S
HONDO          CLOUDY    68  63  84 SE15      29.98S
*UVALDE        CLOUDY    65  62  90 SE9       29.99R
DEL RIO        CLOUDY    67  59  75 SE12      29.95R
LAUGHLIN AFB   CLOUDY    65  60  85 SE10      29.96R
CARRIZO SPRGS  CLOUDY    68  61  77 SE10      29.95S
*FAITH RANCH   PTSUNNY   70  63  78 SE14G21   29.94F
$$

TXZ173-191>194-202-209-217>225-228-211600-
CENTRAL AND SOUTH CENTRAL TEXAS

CITY           SKY/WX    TMP DP  RH WIND       PRES   REMARKS
GEORGETOWN     CLOUDY    64  61  90 S14G26    30.01R
AUSTIN/BERGSTM CLOUDY    66  66 100 S16       30.00R
AUSTIN/MABRY   CLOUDY    64  59  83 VRB6      30.01R
*AUSTIN/EXEC   CLOUDY    66  64  94 S7G17     30.00S
*LAGO VISTA    MOSUNNY   67  59  75 S15G28    30.00R
SAN MARCOS     CLOUDY    62  62 100 S8        30.01S FOG
NEW BRAUNFELS  CLOUDY    64  61  90 SE7       29.99S
RANDOLPH AFB   PTSUNNY   69  63  82 S15       30.00S
PT SAN ANTONIO CLOUDY    68  62  81 SE10      29.98R
SAN ANTONIO    PTSUNNY   67  61  81 SE17      30.00S
STINSON FIELD  PTSUNNY   68  60  75 SE8       29.98S
*LA GRANGE     MOSUNNY   70  66  85 S14       30.00R
*GIDDINGS      MOSUNNY   71  64  81 S8        30.02S
*GONZALES      PTSUNNY   68  68 100 S10       30.00S
$$

TXZ163>164-176>182-195>201-210>213-226-227-235-211600-
SOUTHEAST TEXAS

CITY           SKY/WX    TMP DP  RH WIND       PRES   REMARKS
COLLEGE STN    SUNNY     70  61  73 SE15      30.03R
*BRYAN         SUNNY     67  58  72 S10G16    30.05R
*CALDWELL      SUNNY     68  62  80 S14       30.02S
*CROCKETT        N/A     66  57  72 S8        30.07S
*BRENHAM       SUNNY     69  62  77 S10G17    30.03S
HUNTSVILLE     SUNNY     71  56  58 S12G17    30.05R
CONROE         SUNNY     71  58  63 S12       30.06R
HOUSTON BUSH   SUNNY     72  55  55 SE15      30.06R
HOUSTON HOBBY  FAIR      73  56  54 SE15      30.06R
*HOUSTON SW AP FAIR      72  59  64 S9        30.07R
PEARLAND       FAIR      72  59  63 SE13G20   30.08R
HOUSTON HOOKS  FAIR      71  55  56 S9        30.05R
ELLINGTON FLD  SUNNY     73  55  53 SE16      30.06S
SUGAR LAND     FAIR      73  60  63 SE13      30.06R
*HOUSTON EXEC  FAIR      73  59  60 S14G20    30.06S
*CLEVELAND MUN FAIR      70  60  71 S10       30.07R
*WHARTON       SUNNY     71  59  66 SE14      30.04F
*COLUMBUS      FAIR      69  61  74 S12G18    30.04S
*EAGLE LAKE    SUNNY     69  62  78 S12       30.03
$$

TXZ214>216-236>238-211600-
THE UPPER TEXAS COAST

CITY           SKY/WX    TMP DP  RH WIND       PRES   REMARKS
*ORANGE        FAIR      71  59  66 S12       30.12R
PORT ARTHUR    FAIR      73  56  54 S15       30.09R
GALVESTON      FAIR      72  58  61 SE17      30.09R
ANGLETON       FAIR      73  58  59 S16       30.07R
*BAY CITY      SUNNY     73  62  66 SE15      30.06R
PALACIOS       SUNNY     74  65  73 SE21      30.04R
$$

TXZ229>234-239>247-211600-
TEXAS COASTAL BEND AND RIO GRANDE PLAINS

CITY           SKY/WX    TMP DP  RH WIND       PRES   REMARKS
VICTORIA       MOSUNNY   74  65  73 SE18G28   30.01S
*BEEVILLE      SUNNY     76  63  63 SE17G23   29.99R
ROCKPORT       SUNNY     75  64  68 SE14G28   30.01R
*PORT ARANSAS  SUNNY     75  66  74 SE18      30.02S
*PORT LAVACA   SUNNY     77  66  68 SE18      30.03S
*INGLESIDE     SUNNY     76  66  72 S18G26    30.00R
CORPUS CHRISTI MOSUNNY   76  64  66 SE24      29.99R
CORPUS NAS     SUNNY     80  68  66 SE23G30   30.00R
*ROBSTOWN      NOT AVBL
ALICE          SUNNY     75  63  66 S23G29    29.97R
KINGSVILLE NAS SUNNY     78  64  61 SE22G32   29.98R
COTULLA        MOSUNNY   71  62  73 SE13      29.96R
LAREDO         MOSUNNY   74  62  66 SE18      29.94R
$$

TXZ248>255-211600-
DEEP SOUTH TEXAS

CITY           SKY/WX    TMP DP  RH WIND       PRES   REMARKS
BROWNSVILLE    FAIR      80  65  59 SE26G37   29.99R
PORT ISABEL    FAIR      78  64  61 SE21G32   29.98R
HARLINGEN      SUNNY     79  63  57 S26G32    29.97R
*HEBBRONVILLE  PTSUNNY   69  62  79 S16G23    29.96S
MCALLEN        SUNNY     79  63  57 SE24G32   29.96R
*WESLACO       PTSUNNY   76  64  65 S18G30    29.95
FALFURRIAS     SUNNY     75  63  66 SE15G24   29.96S
EDINBURG       FAIR      77  65  65 SE20G25   29.96R
*ZAPATA        FAIR      75  60  61 SE15G23   29.95R
$$

TXZ213>215-236>238-242>244-246-247-251-254-255-211600-
CMAN STATIONS

STATION/POSITION TIME  TEMP    WIND        PRES    WAVE
                       AIR SEA DIR/SP/G            HT/PER
                 (UTC) (F)     (DEG/KT/KT) (MB)    (FT/S)
SABINE PASS      1418   69 71  160/ 12/ 17 1020.7
SEA RIM ST PARK  1400   69     170/  9/ 12 1018.8
NORTH JETTY/GLS  1418   69 68  160/ 16/ 18 1018.1
EAGLE POINT      1418   69 70  170/ 15/ 16 1018.2
MORGANS POINT    1418   70 70  150/  6/ 12 1018.0
PORT O`CONNOR    1418   70 71  140/ 18/ 20 1016.3
PORT ARANSAS     1400   72 71  140/ 20/ 21 1015.5
MALAQUITE BEACH  1430   74 73  130/ 18/ 20 1015.0
BAFFIN BAY       1430   73 72  130/ 19/ 23 1015.4
PORT ISABEL      1418   73 74  150/ 19/ 22 1015.7
$$




USA.gov is the U.S. government's official web portal to all federal, state and local government web resources and services.